Simultaneous Nadir Overpasses (SNOs) Predictions

Prediction of SNOs between GOES-16 and TERRA Satellite Orbit:

Table of predicted SNOs for the next 14.0 days since TLE Epoch: 8/18/2018
Index Date Time (GOES-16) GOES-16 Lat,Lon TERRA Lat,Lon Distance(km) Time Diff (sec)
1 08/18/2018 15:19:18 0.01, -75.20 -0.56, -72.59 297.06 80
2 08/19/2018 03:43:22 -0.01, -75.21 -0.54, -77.78 292.42 80
3 08/21/2018 03:28:30 -0.01, -75.23 0.07, -74.82 46.45 80
4 08/23/2018 03:16:18 -0.01, -75.26 0.68, -71.86 385.83 80
5 08/23/2018 15:40:13 0.02, -75.27 0.39, -77.02 199.78 80
6 08/25/2018 15:25:22 0.02, -75.30 -0.23, -74.06 140.35 80
7 08/26/2018 03:49:25 -0.02, -75.31 -0.87, -79.26 448.45 80
8 08/27/2018 15:13:11 0.02, -75.34 -0.90, -71.12 481.04 80
9 08/28/2018 03:37:14 -0.02, -75.36 -0.19, -76.31 107.65 80
10 08/30/2018 03:22:22 -0.02, -75.41 0.43, -73.35 233.77 80
11 08/30/2018 15:46:17 0.02, -75.42 0.70, -78.50 351.47 80




NCC Satellite Simultaneous Nadir Overpasses (SNOs) Prediction Service
